sat.trackr.live / text

‹ back to catalog

UNKNOWN

NORAD 82875

UNKNOWN UNKNOWN UNKNOWN

§ Identity

Operator
Country
Launch date
Launch site
Launch vehicle
Mass (kg)
RCS (m²)

External: N2YO · Heavens-Above

§ Orbital elements

Epoch: 2026-09-11T04:54:44.981856Z

Period
101.73 min
Inclination
98.7032°
Eccentricity
0.0375683
Mean motion
14.15566967 rev/d
Perigee alt
569.2 km
Apogee alt
1,111.6 km
Semi-major
7,218.5 km
B*
7.2368e-5
RAAN
236.4062°
Arg perigee
221.2632°
Mean anomaly
135.9589°
Rev number
58,301

§ Raw data

UNKNOWN1 82875U          26254.20468729  .00000224  00000+0  72368-4 0  99942 82875  98.7032 236.4062 0375683 221.2632 135.9589 14.15566967583011

JSON: /api/v1/satellites/82875 · /tle

For live sub-satellite position, see the globe view (requires WebGL).

§ Visibility from observer

Set your observer location to see the next 7 days of passes ≥ 10°. The values pass through the URL so the page stays shareable.

No JS? Fill the form by hand. The geolocation button needs JavaScript.